Location: Chakepay
(13.3931°S, 72.1925°W)
Time: 04:17:54
(UTC+00:00)

Meteor 1-28 Rocket - Pass Details

Date: 15 November 2019
Orbit: 503 x 524 km, 97.3° (Epoch: 06 December)

Event Time Altitude Azimuth Distance (km) Brightness Sun altitude
Rises 08:17:17 0° 158° (SSE) 2,665 7.6 -26.3°
Reaches altitude 10° 08:19:30 10° 150° (SSE) 1,769 6.6 -25.8°
Maximum altitude 08:23:05 38° 80° (E) 806 4.5 -25.0°
Enters shadow 08:23:53 34° 50° (NE) 878 4.5 -24.9°
